Location: Stonelick Lake State Park
(39.2170°N, 84.0850°W)
Time: 21:21:49
(UTC-04:00)

Amateur Radio Satellites - All Passes

Search period start: 24 May 2016 20:51
Search period end: 25 May 2016 20:51
Location: Stonelick Lake State Park, 39.2170°N, 84.0850°W

Satellite Date Start Highest point End Downlink Frequencies (MHz)
Time Altitude Azimuth
O/OREOS (USA 219) 24 May 20:54:03 20:58:30 64° 67° (ENE) 21:02:56 437.305
CINEMA 3 24 May 21:00:51 21:05:42 83° 258° (WSW) 21:10:22 145.822/145.860
BEESAT 3 24 May 21:07:40 21:10:18 17° 46° (NE) 21:12:55 437.485
UWE-3 24 May 21:13:38 21:17:19 28° 70° (ENE) 21:20:57 435.000/436.395/437.385
AIST 1 24 May 21:18:45 21:19:38 11° 83° (E) 21:20:30
COMPASS 1 24 May 21:23:20 21:27:27 86° 77° (ENE) 21:31:38 437.405
FUNcube-1 24 May 21:27:37 21:31:03 24° 69° (ENE) 21:34:27 145.935
AUBIESAT-1 24 May 21:28:48 21:31:50 19° 259° (W) 21:34:45 437.475
AAUSAT CUBESAT 2 24 May 21:29:15 21:33:22 80° 76° (ENE) 21:37:31 437.432
M-CUBED/EXP-1 PRIME 24 May 21:33:10 21:35:33 15° 261° (W) 21:37:53 437.505
PRISM 24 May 21:39:16 21:43:14 41° 99° (E) 21:47:10 437.425
STRAND 1 24 May 21:40:40 21:45:24 38° 291° (WNW) 21:50:07 437.568
RS-15 24 May 21:45:06 21:54:41 28° 331° (NNW) 22:04:41 29.354- 29.394
DOVE 4 24 May 21:46:46 21:48:11 11° 271° (W) 21:49:36 437.250
PCSat 24 May 21:53:03 21:57:26 25° 253° (WSW) 22:01:47 145.827
CANX-2 24 May 21:58:38 22:01:24 17° 267° (W) 22:04:12 2200.000
BEESAT 2 24 May 22:03:08 22:06:47 33° 53° (NE) 22:10:25 435.950
SEEDS 24 May 22:07:40 22:10:49 21° 266° (W) 22:13:59 437.485
CUBEBUG 2 24 May 22:13:45 22:17:58 41° 262° (W) 22:22:05 437.445
Oscar 11 24 May 22:15:07 22:19:24 78° 257° (WSW) 22:23:44 145.826/435.025
ZACube-1 24 May 22:22:49 22:27:06 72° 259° (WSW) 22:31:19 437.345
DELFI C3 24 May 22:27:08 22:31:02 66° 75° (ENE) 22:34:59 145.870
CUSAT 1 24 May 22:34:09 22:39:22 19° 61° (ENE) 22:44:09 437.405
GONETS M04 24 May 22:35:56 22:44:13 47° 88° (E) 22:52:27
O/OREOS (USA 219) 24 May 22:36:18 22:37:17 11° 263° (W) 22:38:15 437.305
HO-68 24 May 22:37:37 22:42:02 17° 269° (W) 22:46:28 435.675
BEESAT 3 24 May 22:44:26 22:48:13 45° 244° (WSW) 22:51:59 437.485
UWE-3 24 May 22:50:14 22:53:44 23° 265° (W) 22:57:12 435.000/436.395/437.385
AIST 1 24 May 22:52:17 22:56:37 60° 280° (W) 23:00:59
Cosmos 2499 24 May 22:53:02 22:59:07 31° 85° (E) 23:05:31 435.465 / 435.565
HUMSAT D 24 May 22:59:59 23:04:03 70° 76° (ENE) 23:08:07 437.325/437.525
AISAT 24 May 23:02:35 23:03:15 10° 61° (ENE) 23:03:56 437.250
FUNcube-1 24 May 23:03:38 23:07:12 26° 264° (W) 23:10:44 145.935
ISS 24 May 23:13:46 23:16:57 56° 138° (SE) 23:20:10 145.825
UNISAT 6 24 May 23:14:52 23:18:21 23° 95° (E) 23:21:50 437.425
PRISM 24 May 23:15:37 23:18:12 16° 295° (WNW) 23:20:46 437.425
TIGRISAT 24 May 23:23:25 23:27:05 27° 96° (E) 23:30:47 435.000
ESTCUBE 1 24 May 23:23:59 23:27:39 25° 68° (ENE) 23:31:19 437.505/2401.250
PHONESAT 2.4 24 May 23:27:02 23:29:01 16° 148° (SSE) 23:31:01 2401.200-2431.200
UKube-1 24 May 23:27:16 23:29:06 12° 63° (ENE) 23:30:54 .
DANDE 24 May 23:38:21 23:45:39 32° 68° (ENE) 23:52:34 436.750
BEESAT 2 24 May 23:41:30 23:44:23 19° 249° (WSW) 23:47:16 435.950
AIST 2 24 May 23:45:24 23:49:00 28° 51° (NE) 23:52:36 435.215
50 SAT 24 May 23:55:26 23:58:45 35° 72° (ENE) 00:02:07 437.505
ANTELSAT 24 May 23:55:36 23:59:53 70° 102° (ESE) 00:04:12 437.575/2403.000
VELOX 1 24 May 23:59:17 00:03:27 40° 71° (ENE) 00:07:38 145.980
CUBEBUG 1 25 May 00:00:59 00:05:08 42° 72° (ENE) 00:09:21 437.445
NANOSAT C BR1 25 May 00:01:47 00:03:34 12° 91° (E) 00:05:20 145.865
RS-15 25 May 00:04:56 00:13:05 20° 7° (N) 00:21:23 29.354- 29.394
DX 1 25 May 00:05:14 00:09:19 39° 71° (ENE) 00:13:25 434.975-435.025
CUSAT 1 25 May 00:14:43 00:22:42 88° 257° (WSW) 00:29:23 437.405
GONETS M04 25 May 00:33:12 00:41:08 37° 287° (WNW) 00:49:06
AISAT 25 May 00:34:36 00:39:04 78° 257° (WSW) 00:43:34 437.250
DUCHIFAT 1 25 May 00:40:16 00:44:04 33° 98° (E) 00:47:49 145.980
SPROUT 25 May 00:42:50 00:46:56 45° 73° (ENE) 00:51:03 437.525
Cosmos 2499 25 May 00:45:07 00:51:54 44° 285° (WNW) 00:59:08 435.465 / 435.565
JAS-2 25 May 00:50:20 00:52:59 12° 83° (E) 00:55:33 435.910
ISS 25 May 00:51:04 00:53:37 21° 335° (NNW) 00:56:10 145.825
UNISAT 6 25 May 00:51:23 00:55:02 28° 290° (WNW) 00:58:42 437.425
TIGRISAT 25 May 01:00:15 01:03:40 24° 291° (WNW) 01:07:07 435.000
UKube-1 25 May 01:00:20 01:04:37 60° 259° (W) 01:08:55 .
ESTCUBE 1 25 May 01:00:23 01:04:18 29° 264° (W) 01:08:17 437.505/2401.250
PHONESAT 2.4 25 May 01:02:19 01:05:25 66° 163° (SSE) 01:08:32 2401.200-2431.200
BUGSAT 1 25 May 01:11:59 01:15:41 34° 97° (E) 01:19:21 437.445
POPSAT HIP 1 25 May 01:14:22 01:18:35 86° 280° (W) 01:22:46 437.405
QB50P1 25 May 01:15:05 01:19:18 83° 284° (WNW) 01:23:29 145.935-145.965
QB50P2 25 May 01:16:15 01:20:27 76° 284° (WNW) 01:24:38 145.880/145.840
POLYITAN 1 25 May 01:18:41 01:22:53 74° 284° (WNW) 01:27:03 437.675
TISAT 1 25 May 01:19:14 01:22:59 32° 71° (ENE) 01:26:45 437.305
DANDE 25 May 01:20:41 01:28:57 60° 267° (W) 01:36:34 436.750
AIST 2 25 May 01:23:56 01:27:24 26° 247° (WSW) 01:30:53 435.215
50 SAT 25 May 01:31:00 01:32:39 13° 268° (W) 01:34:17 437.505
ANTELSAT 25 May 01:35:16 01:36:01 10° 297° (WNW) 01:36:47 437.575/2403.000
NANOSAT C BR1 25 May 01:35:31 01:39:34 49° 287° (WNW) 01:43:36 145.865
VELOX 1 25 May 01:37:03 01:40:04 18° 267° (W) 01:43:05 145.980
CUBEBUG 1 25 May 01:38:46 01:41:37 17° 267° (W) 01:44:28 437.445
DX 1 25 May 01:42:44 01:45:39 17° 266° (W) 01:48:34 434.975-435.025
CUSAT 1 25 May 01:59:14 02:03:25 16° 282° (WNW) 02:07:18 437.405
SWISSCUBE 25 May 02:06:57 02:10:43 24° 67° (ENE) 02:14:31 437.505
Oscar 19 25 May 02:07:29 02:11:22 21° 94° (E) 02:15:12 437.125/150
SO-50 25 May 02:08:51 02:13:45 83° 120° (ESE) 02:18:41 436.795
ITUPSAT 1 25 May 02:11:24 02:15:09 24° 67° (ENE) 02:18:55 437.325
DUCHIFAT 1 25 May 02:16:33 02:19:31 19° 293° (WNW) 02:22:29 145.980
RS-15 25 May 02:19:20 02:30:35 39° 40° (NE) 02:41:49 29.354- 29.394
SPROUT 25 May 02:20:45 02:23:06 14° 268° (W) 02:25:28 437.525
JAS-2 25 May 02:31:40 02:39:18 78° 103° (ESE) 02:46:04 435.910
BEESAT 25 May 02:36:13 02:40:41 42° 71° (ENE) 02:45:11 436.000
PHONESAT 2.4 25 May 02:39:06 02:42:13 66° 359° (N) 02:45:20 2401.200-2431.200
BUGSAT 1 25 May 02:48:07 02:50:48 17° 293° (WNW) 02:53:27 437.445
TISAT 1 25 May 02:55:34 02:58:41 20° 266° (W) 03:01:48 437.305
YUBILEINY 25 May 02:59:00 03:04:40 18° 64° (ENE) 03:10:19 435.215
DANDE 25 May 03:08:42 03:10:02 10° 285° (WNW) 03:11:21 436.750
Gurwin Techsat 1B 25 May 03:43:35 03:48:56 74° 103° (ESE) 03:54:14 435.225
SWISSCUBE 25 May 03:44:02 03:48:20 34° 262° (W) 03:52:39 437.505
Oscar 19 25 May 03:45:58 03:50:50 43° 290° (WNW) 03:55:41 437.125/150
ITUPSAT 1 25 May 03:48:28 03:52:47 35° 262° (W) 03:57:09 437.325
SO-50 25 May 03:51:55 03:54:52 16° 319° (NW) 03:57:49 436.795
Cosmos 2491 25 May 03:52:44 03:58:37 20° 79° (E) 04:04:28 435.465 / 435.565
AO-7 25 May 03:53:59 03:59:08 17° 91° (E) 04:04:16 29.400- 29.500
Cosmos 2504 25 May 04:03:03 04:06:03 12° 60° (ENE) 04:09:05 435.465 / 435.565
ISS 25 May 04:06:59 04:08:40 13° 16° (NNE) 04:10:21 145.825
MOZHAYETS 4 25 May 04:14:49 04:19:01 39° 71° (ENE) 04:23:16
BEESAT 25 May 04:15:20 04:18:38 19° 266° (W) 04:21:58 436.000
PHONESAT 2.4 25 May 04:15:55 04:19:02 72° 195° (SSW) 04:22:08 2401.200-2431.200
JAS-2 25 May 04:18:00 04:23:20 21° 302° (WNW) 04:28:20 435.910
ITAMSAT 1 25 May 04:20:27 04:25:38 64° 102° (ESE) 04:30:48 435.822/435.867
KKS-1 25 May 04:21:18 04:25:45 67° 74° (ENE) 04:30:12 437.445
RS-15 25 May 04:31:54 04:44:09 74° 244° (WSW) 04:56:18 29.354- 29.394
YUBILEINY 25 May 04:53:52 05:02:39 89° 269° (W) 05:11:28 435.215
STARS 25 May 05:05:19 05:09:44 79° 257° (WSW) 05:14:10 437.465
Gurwin Techsat 1B 25 May 05:25:27 05:28:13 14° 299° (WNW) 05:30:58 435.225
CUBESAT XI-V 25 May 05:32:08 05:36:08 29° 69° (ENE) 05:40:11 437.345
HORYU 2 25 May 05:40:39 05:44:18 25° 96° (E) 05:47:55 437.375
ISS 25 May 05:42:31 05:45:43 52° 35° (NE) 05:48:54 145.825
AO-7 25 May 05:44:25 05:52:50 89° 289° (WNW) 06:01:13 29.400- 29.500
Cosmos 2491 25 May 05:45:30 05:54:20 80° 278° (W) 06:03:13 435.465 / 435.565
Cosmos 2504 25 May 05:52:40 06:01:00 66° 80° (E) 06:09:46 435.465 / 435.565
MOZHAYETS 4 25 May 05:53:08 05:56:19 19° 267° (W) 05:59:32
PHONESAT 2.4 25 May 05:53:16 05:55:27 18° 211° (SSW) 05:57:38 2401.200-2431.200
ITAMSAT 1 25 May 06:01:25 06:04:33 16° 298° (WNW) 06:07:41 435.822/435.867
KKS-1 25 May 06:01:51 06:02:44 10° 270° (W) 06:03:36 437.445
NOAA 15 25 May 06:33:23 06:36:51 17° 92° (E) 06:40:17 137.62
LilacSat-2 25 May 06:47:59 06:48:32 10° 91° (E) 06:49:05 437.200
RS-15 25 May 06:48:01 06:54:24 16° 264° (W) 07:00:47 29.354- 29.394
YUBILEINY 25 May 06:53:16 06:58:08 16° 283° (WNW) 07:03:01 435.215
GOMX 1 25 May 07:05:14 07:05:56 10° 87° (E) 07:06:39 467.674
CUBESAT XI-V 25 May 07:09:34 07:13:28 26° 265° (W) 07:17:24 437.345
CUTE-I 25 May 07:13:43 07:18:22 29° 96° (E) 07:22:59 437.470
STRAND 1 25 May 07:16:49 07:21:16 31° 68° (ENE) 07:25:44 437.568
HORYU 2 25 May 07:17:01 07:20:48 28° 291° (WNW) 07:24:36 437.375
ISS 25 May 07:19:53 07:21:51 15° 230° (SW) 07:23:49 145.825
AO-85 25 May 07:33:55 07:39:21 73° 119° (ESE) 07:44:43 145.980
AO-7 25 May 07:38:51 07:44:30 21° 308° (NW) 07:50:10 29.400- 29.500
NOAA 18 25 May 07:40:42 07:46:08 63° 102° (ESE) 07:51:34 137.9125
Cosmos 2504 25 May 07:47:14 07:53:43 26° 277° (W) 08:00:27 435.465 / 435.565
Cosmos 2491 25 May 07:47:52 07:52:41 15° 299° (WNW) 07:57:32 435.465 / 435.565
BRITE-PL 25 May 08:00:20 08:05:34 83° 284° (WNW) 08:10:21 437.365/2234.400
Cubesat XI-IV 25 May 08:05:55 08:11:18 89° 102° (ESE) 08:16:40 437.490
DOVE 4 25 May 08:06:12 08:09:37 22° 93° (E) 08:12:54 437.250
NOAA 15 25 May 08:11:46 08:16:57 55° 288° (WNW) 08:22:05 137.62
HO-68 25 May 08:17:40 08:21:30 15° 90° (E) 08:25:19 435.675
LilacSat-2 25 May 08:19:27 08:23:06 47° 286° (WNW) 08:26:44 437.200
PRISM 25 May 08:27:53 08:31:20 26° 69° (ENE) 08:34:49 437.425
CUTE 1.7 + AOD 2 25 May 08:36:55 08:38:49 13° 91° (E) 08:40:42 437.475
GOMX 1 25 May 08:39:54 08:44:39 68° 286° (WNW) 08:49:03 467.674
Cosmos 2499 25 May 08:46:41 08:49:07 11° 59° (ENE) 08:51:36 435.465 / 435.565
GONETS M04 25 May 08:48:15 08:54:33 21° 65° (ENE) 09:00:48
CUTE-I 25 May 08:53:37 08:58:23 34° 292° (WNW) 09:03:09 437.470
STRAND 1 25 May 08:56:00 09:00:23 29° 264° (W) 09:04:48 437.568
CINEMA 3 25 May 08:57:33 09:00:50 22° 95° (E) 09:04:05 145.822/145.860
AIST 1 25 May 09:00:45 09:04:32 28° 76° (ENE) 09:08:17
JUGNU 25 May 09:02:41 09:03:17 10° 174° (S) 09:03:54 437.505
AUBIESAT-1 25 May 09:08:00 09:10:40 22° 102° (ESE) 09:13:20 437.475
COMPASS 1 25 May 09:08:35 09:11:00 15° 92° (E) 09:13:24 437.405
M-CUBED/EXP-1 PRIME 25 May 09:11:54 09:14:54 32° 103° (ESE) 09:17:51 437.505
AAUSAT CUBESAT 2 25 May 09:14:12 09:16:18 13° 91° (E) 09:18:25 437.432
AO-85 25 May 09:16:26 09:20:22 20° 316° (NW) 09:24:15 145.980
NOAA 18 25 May 09:22:45 09:26:15 18° 299° (WNW) 09:29:47 137.9125
CANX-2 25 May 09:42:50 09:47:08 87° 103° (ESE) 09:51:26 2200.000
DOVE 4 25 May 09:43:30 09:47:22 29° 291° (WNW) 09:51:03 437.250
Cubesat XI-IV 25 May 09:48:38 09:50:34 12° 301° (WNW) 09:52:30 437.490
SEEDS 25 May 09:51:15 09:55:29 68° 101° (E) 09:59:43 437.485
HO-68 25 May 10:02:49 10:10:01 89° 290° (WNW) 10:17:13 435.675
PRISM 25 May 10:03:15 10:06:35 23° 264° (W) 10:09:57 437.425
Oscar 11 25 May 10:04:06 10:07:21 20° 94° (E) 10:10:36 145.826/435.025
CUBEBUG 2 25 May 10:05:23 10:09:18 40° 99° (E) 10:13:15 437.445
CUTE 1.7 + AOD 2 25 May 10:10:47 10:14:56 51° 286° (WNW) 10:19:04 437.475
ZACube-1 25 May 10:12:41 10:15:56 22° 95° (E) 10:19:13 437.345
UNISAT 6 25 May 10:13:13 10:16:21 19° 67° (ENE) 10:19:27 437.425
TIGRISAT 25 May 10:21:26 10:24:50 22° 68° (ENE) 10:28:11 435.000
CINEMA 3 25 May 10:34:27 10:37:58 26° 290° (WNW) 10:41:25 145.822/145.860
Cosmos 2499 25 May 10:35:32 10:44:01 62° 80° (E) 10:52:45 435.465 / 435.565
AIST 1 25 May 10:38:38 10:41:57 21° 272° (W) 10:45:14
UWE-3 25 May 10:39:41 10:43:51 71° 102° (ESE) 10:48:03 435.000/436.395/437.385
SO-50 25 May 10:41:38 10:46:15 54° 55° (NE) 10:50:43 436.795
COMPASS 1 25 May 10:42:45 10:46:44 42° 287° (WNW) 10:50:43 437.405
AUBIESAT-1 25 May 10:42:51 10:45:03 17° 297° (WNW) 10:47:15 437.475
GONETS M04 25 May 10:43:37 10:52:19 78° 266° (W) 11:00:58
HUMSAT D 25 May 10:46:23 10:47:57 12° 91° (E) 10:49:31 437.325/437.525
M-CUBED/EXP-1 PRIME 25 May 10:47:51 10:49:11 12° 299° (WNW) 10:50:32 437.505
AAUSAT CUBESAT 2 25 May 10:48:01 10:52:02 46° 287° (WNW) 10:56:02 437.432
PCSat 25 May 10:49:32 10:54:42 48° 112° (ESE) 10:59:55 145.827
JUGNU 25 May 10:50:18 10:51:21 10° 185° (S) 10:52:24 437.505
FUNcube-1 25 May 10:51:38 10:55:46 59° 101° (E) 10:59:55 145.935
ANTELSAT 25 May 10:53:13 10:57:29 52° 74° (ENE) 11:01:42 437.575/2403.000
O/OREOS (USA 219) 25 May 11:04:53 11:09:28 86° 291° (WNW) 11:14:03 437.305
SEEDS 25 May 11:29:42 11:30:36 11° 297° (WNW) 11:31:30 437.485
DUCHIFAT 1 25 May 11:31:29 11:34:46 22° 68° (ENE) 11:38:03 145.980
CUSAT 1 25 May 11:36:06 11:39:30 15° 77° (ENE) 11:43:13 437.405
Oscar 11 25 May 11:39:39 11:43:31 32° 289° (WNW) 11:47:24 145.826/435.025
DELFI C3 25 May 11:40:30 11:44:29 62° 285° (WNW) 11:48:29 145.870
CUBEBUG 2 25 May 11:43:06 11:45:37 16° 293° (WNW) 11:48:08 437.445
ZACube-1 25 May 11:48:38 11:52:13 28° 290° (WNW) 11:55:50 437.345
UNISAT 6 25 May 11:48:47 11:52:50 35° 262° (W) 11:56:50 437.425
HO-68 25 May 11:52:28 11:56:45 17° 305° (NW) 12:01:03 435.675
TIGRISAT 25 May 11:57:28 12:01:22 30° 263° (W) 12:05:12 435.000
BUGSAT 1 25 May 12:00:54 12:04:12 22° 68° (ENE) 12:07:28 437.445
POPSAT HIP 1 25 May 12:05:26 12:09:37 60° 74° (ENE) 12:13:48 437.405
QB50P1 25 May 12:06:06 12:10:17 62° 75° (ENE) 12:14:29 145.935-145.965
QB50P2 25 May 12:07:24 12:11:37 68° 75° (ENE) 12:15:50 145.880/145.840
POLYITAN 1 25 May 12:09:50 12:14:03 70° 75° (ENE) 12:18:17 437.675
HUMSAT D 25 May 12:19:49 12:23:51 51° 286° (WNW) 12:27:54 437.325/437.525
SO-50 25 May 12:23:29 12:26:15 16° 252° (WSW) 12:28:57 436.795
NANOSAT C BR1 25 May 12:26:02 12:30:16 81° 256° (WSW) 12:34:31 145.865
AISAT 25 May 12:26:40 12:30:02 21° 94° (E) 12:33:22 437.250
Cosmos 2499 25 May 12:29:37 12:36:31 28° 277° (W) 12:43:37 435.465 / 435.565
FUNcube-1 25 May 12:30:06 12:31:31 11° 296° (WNW) 12:32:55 145.935
ANTELSAT 25 May 12:32:33 12:34:29 13° 268° (W) 12:36:24 437.575/2403.000
PCSat 25 May 12:33:54 12:38:19 25° 310° (NW) 12:42:47 145.827
BEESAT 3 25 May 12:33:59 12:37:34 35° 115° (ESE) 12:41:12 437.485
SRMSAT 25 May 12:38:20 12:39:38 11° 182° (S) 12:40:57 437.500
JAS-2 25 May 12:41:28 12:47:52 35° 64° (ENE) 12:54:40 435.910
GONETS M04 25 May 12:44:00 12:47:34 13° 285° (WNW) 12:51:08
DANDE 25 May 12:46:24 12:50:32 24° 82° (E) 12:55:35 436.750
UKube-1 25 May 12:49:02 12:52:31 23° 96° (E) 12:55:58 .
ESTCUBE 1 25 May 12:53:09 12:57:40 61° 101° (E) 13:02:10 437.505/2401.250
50 SAT 25 May 12:59:03 13:02:43 54° 100° (E) 13:06:22 437.505
DUCHIFAT 1 25 May 13:06:37 13:10:18 29° 263° (W) 13:13:59 145.980
CUSAT 1 25 May 13:14:17 13:20:13 85° 281° (W) 13:27:42 437.405
Oscar 19 25 May 13:23:06 13:27:30 29° 67° (ENE) 13:31:55 437.125/150
VELOX 1 25 May 13:26:26 13:30:54 86° 284° (WNW) 13:35:18 145.980
CUBEBUG 1 25 May 13:26:31 13:30:55 82° 285° (WNW) 13:35:15 437.445
Gurwin Techsat 1B 25 May 13:27:10 13:29:40 13° 60° (ENE) 13:32:09 435.225
DX 1 25 May 13:30:09 13:34:32 87° 99° (E) 13:38:53 434.975-435.025
BEESAT 2 25 May 13:31:11 13:35:09 89° 300° (WNW) 13:39:10 435.950
BUGSAT 1 25 May 13:35:45 13:39:24 28° 263° (W) 13:43:04 437.445
POPSAT HIP 1 25 May 13:44:49 13:45:45 11° 269° (W) 13:46:41 437.405
QB50P1 25 May 13:45:56 13:46:26 10° 270° (W) 13:46:56 145.935-145.965
AISAT 25 May 14:02:36 14:06:33 33° 290° (WNW) 14:10:29 437.250
ITAMSAT 1 25 May 14:02:40 14:03:50 11° 59° (ENE) 14:05:00 435.822/435.867
SPROUT 25 May 14:05:27 14:09:43 78° 284° (WNW) 14:13:57 437.525
BEESAT 3 25 May 14:12:23 14:15:22 20° 312° (NW) 14:18:22 437.485
UKube-1 25 May 14:24:49 14:28:32 28° 291° (WNW) 14:32:13 .
JAS-2 25 May 14:25:38 14:32:30 49° 263° (W) 14:40:00 435.910
DANDE 25 May 14:27:56 14:32:48 43° 288° (WNW) 14:39:12 436.750
ESTCUBE 1 25 May 14:31:49 14:33:57 13° 297° (WNW) 14:36:04 437.505/2401.250
TISAT 1 25 May 14:39:10 14:43:20 66° 101° (E) 14:47:28 437.305
BEESAT 25 May 14:39:35 14:41:12 11° 90° (E) 14:42:48 436.000
AO-7 25 May 14:51:56 14:58:16 25° 55° (NE) 15:04:37 29.400- 29.500
CUSAT 1 25 May 15:00:09 15:03:47 15° 302° (WNW) 15:07:46 437.405
Oscar 19 25 May 15:02:01 15:06:41 33° 263° (W) 15:11:23 437.125/150
Gurwin Techsat 1B 25 May 15:03:36 15:08:54 79° 257° (WSW) 15:14:14 435.225
BEESAT 2 25 May 15:12:51 15:13:37 10° 319° (NW) 15:14:23 435.950
AIST 2 25 May 15:19:29 15:23:36 81° 118° (ESE) 15:27:45 435.215
ITAMSAT 1 25 May 15:37:19 15:42:29 86° 75° (ENE) 15:47:42 435.822/435.867
SWISSCUBE 25 May 15:44:36 15:49:23 65° 102° (ESE) 15:54:08 437.505
ITUPSAT 1 25 May 15:49:22 15:54:09 64° 101° (ESE) 15:58:55 437.325
Cosmos 2491 25 May 15:57:29 16:05:57 50° 76° (ENE) 16:14:18 435.465 / 435.565
YUBILEINY 25 May 15:59:54 16:05:53 21° 80° (E) 16:11:51 435.215
AO-85 25 May 16:07:41 16:12:10 43° 53° (NE) 16:16:15 145.980
BEESAT 25 May 16:14:39 16:19:25 69° 285° (WNW) 16:24:10 436.000
KKS-1 25 May 16:15:02 16:17:15 14° 92° (E) 16:19:27 437.445
TISAT 1 25 May 16:17:43 16:18:25 10° 297° (WNW) 16:19:06 437.305
HORYU 2 25 May 16:38:03 16:41:21 21° 67° (ENE) 16:44:39 437.375
AO-7 25 May 16:41:57 16:50:14 75° 254° (WSW) 16:58:35 29.400- 29.500
RS-15 25 May 16:46:21 16:53:24 19° 98° (E) 17:00:39 29.354- 29.394
STARS 25 May 16:56:38 16:59:50 20° 94° (E) 17:03:01 437.465
AIST 2 25 May 17:00:56 17:02:38 12° 318° (NW) 17:04:21 435.215
SWISSCUBE 25 May 17:24:12 17:26:36 14° 298° (WNW) 17:29:00 437.505
NOAA 18 25 May 17:28:43 17:31:33 15° 60° (ENE) 17:34:24 137.9125
ITUPSAT 1 25 May 17:28:59 17:31:25 14° 298° (WNW) 17:33:53 437.325
BRITE-PL 25 May 17:33:34 17:36:24 14° 61° (ENE) 17:39:15 437.365/2234.400
MOZHAYETS 4 25 May 17:47:23 17:52:00 75° 285° (WNW) 17:56:37
AO-85 25 May 17:49:09 17:52:12 18° 252° (WSW) 17:55:04 145.980
Cubesat XI-IV 25 May 17:49:25 17:52:43 17° 62° (ENE) 17:56:01 437.490
KKS-1 25 May 17:49:48 17:54:06 51° 287° (WNW) 17:58:22 437.445
NOAA 15 25 May 17:52:05 17:56:26 26° 66° (ENE) 18:00:48 137.62
YUBILEINY 25 May 17:52:59 18:01:40 76° 278° (W) 18:10:24 435.215
Cosmos 2491 25 May 17:54:52 18:02:24 34° 275° (W) 18:09:56 435.465 / 435.565
GOMX 1 25 May 18:10:28 18:13:24 15° 62° (ENE) 18:16:19 467.674
HORYU 2 25 May 18:13:40 18:17:41 34° 262° (W) 18:21:43 437.375
Cosmos 2504 25 May 18:30:23 18:37:17 54° 91° (E) 18:44:31 435.465 / 435.565
STARS 25 May 18:32:19 18:36:16 34° 290° (WNW) 18:40:11 437.465
CUTE-I 25 May 18:34:25 18:39:24 43° 70° (ENE) 18:44:24 437.470
AO-7 25 May 18:41:05 18:44:14 12° 272° (W) 18:47:25 29.400- 29.500
HO-68 25 May 18:48:30 18:50:28 11° 51° (NE) 18:52:26 435.675
RS-15 25 May 18:52:33 19:03:50 84° 118° (ESE) 19:15:49 29.354- 29.394
LilacSat-2 25 May 18:59:56 19:03:43 66° 75° (ENE) 19:07:29 437.200
NOAA 18 25 May 19:06:04 19:11:32 77° 257° (WSW) 19:17:00 137.9125
CUBESAT XI-V 25 May 19:06:09 19:10:53 84° 100° (E) 19:15:36 437.345
BRITE-PL 25 May 19:08:27 19:14:02 85° 258° (WSW) 19:19:48 437.365/2234.400
DOVE 4 25 May 19:09:44 19:13:57 25° 68° (ENE) 19:18:04 437.250
Cubesat XI-IV 25 May 19:27:00 19:32:15 62° 259° (WSW) 19:37:32 437.490
STRAND 1 25 May 19:30:42 19:32:01 11° 89° (E) 19:33:20 437.568
NOAA 15 25 May 19:31:05 19:36:00 38° 262° (W) 19:40:56 137.62
O/OREOS (USA 219) 25 May 19:38:08 19:40:46 15° 55° (NE) 19:43:25 437.305
PCSat 25 May 19:38:31 19:43:22 32° 53° (NE) 19:48:11 145.827
GOMX 1 25 May 19:45:18 19:50:48 77° 258° (WSW) 19:56:15 467.674
AUBIESAT-1 25 May 19:52:32 19:56:14 31° 67° (ENE) 19:59:43 437.475
YUBILEINY 25 May 19:55:52 20:00:04 14° 300° (WNW) 20:04:18 435.215
M-CUBED/EXP-1 PRIME 25 May 19:56:45 20:00:49 43° 69° (ENE) 20:04:37 437.505
CINEMA 3 25 May 19:57:58 20:01:35 22° 68° (ENE) 20:05:06 145.822/145.860
CUTE-I 25 May 20:15:32 20:19:36 22° 266° (W) 20:23:42 437.470
Cosmos 2504 25 May 20:25:15 20:31:04 26° 291° (WNW) 20:37:09 435.465 / 435.565
HO-68 25 May 20:29:46 20:36:46 62° 70° (ENE) 20:43:48 435.675
CANX-2 25 May 20:34:20 20:38:24 51° 74° (ENE) 20:42:30 2200.000
SEEDS 25 May 20:41:52 20:45:44 38° 72° (ENE) 20:49:38 437.485
CUBESAT XI-V 25 May 20:46:45 20:47:33 10° 299° (WNW) 20:48:21 437.345
